StationID,Date,MaxTemp,MinTemp,Precipitation,Snowfall,SnowDepth
"CA1AB000064","2016-10-24",,,0.00,0.00,0.00
"CA1AB000064","2016-10-25",,,0.00,0.00,0.00
"CA1AB000064","2016-10-26",,,10.00,0.00,0.00
"CA1AB000064","2016-10-27",,,0.00,0.00,0.00
"CA1AB000064","2016-10-28",,,15.00,0.00,0.00
"CA1AB000064","2016-10-29",,,3.00,0.00,0.00
"CA1AB000064","2016-10-30",,,0.00,0.00,0.00
"CA1AB000064","2016-10-31",,,0.00,0.00,0.00
"CA1AB000064","2016-11-01",,,8.00,10.00,10.00
"CA1AB000064","2016-11-02",,,8.00,10.00,10.00
"CA1AB000064","2016-11-03",,,0.00,0.00,0.00
"CA1AB000064","2016-11-04",,,0.00,0.00,0.00
"CA1AB000064","2016-11-05",,,0.00,0.00,0.00
"CA1AB000064","2016-11-06",,,0.00,0.00,0.00
"CA1AB000064","2016-11-07",,,58.00,0.00,0.00
"CA1AB000064","2016-11-08",,,0.00,0.00,0.00
"CA1AB000064","2016-11-09",,,0.00,0.00,0.00
"CA1AB000064","2016-11-10",,,0.00,0.00,0.00
"CA1AB000064","2016-11-11",,,0.00,0.00,0.00
"CA1AB000064","2016-11-12",,,0.00,0.00,0.00
"CA1AB000064","2016-11-13",,,18.00,0.00,0.00
"CA1AB000064","2016-11-14",,,0.00,0.00,0.00
"CA1AB000064","2016-11-15",,,0.00,0.00,0.00
"CA1AB000064","2016-11-16",,,13.00,20.00,20.00
"CA1AB000064","2016-11-17",,,0.00,0.00,0.00
"CA1AB000064","2016-11-18",,,0.00,0.00,0.00
"CA1AB000064","2016-11-19",,,0.00,0.00,0.00
"CA1AB000064","2016-11-20",,,3.00,10.00,10.00
"CA1AB000064","2016-11-21",,,0.00,0.00,0.00
"CA1AB000064","2016-11-22",,,0.00,0.00,0.00
"CA1AB000064","2016-11-23",,,0.00,0.00,0.00
"CA1AB000064","2016-11-24",,,0.00,0.00,0.00
"CA1AB000064","2016-11-25",,,0.00,0.00,0.00
"CA1AB000064","2016-11-26",,,0.00,0.00,0.00
"CA1AB000064","2016-11-27",,,0.00,0.00,0.00
"CA1AB000064","2016-11-28",,,0.00,0.00,0.00
"CA1AB000064","2016-11-29",,,0.00,0.00,0.00
"CA1AB000064","2016-11-30",,,0.00,0.00,0.00
"CA1AB000064","2016-12-01",,,0.00,0.00,0.00
"CA1AB000064","2016-12-02",,,3.00,0.00,0.00
"CA1AB000064","2016-12-03",,,0.00,0.00,0.00
"CA1AB000064","2016-12-04",,,0.00,0.00,0.00
"CA1AB000064","2016-12-05",,,30.00,61.00,61.00
"CA1AB000064","2016-12-06",,,8.00,20.00,61.00
"CA1AB000064","2016-12-07",,,0.00,0.00,61.00
"CA1AB000064","2016-12-08",,,0.00,0.00,61.00
"CA1AB000064","2016-12-09",,,3.00,10.00,71.00
"CA1AB000064","2016-12-10",,,0.00,0.00,71.00
"CA1AB000064","2016-12-11",,,3.00,5.00,71.00
"CA1AB000064","2016-12-12",,,0.00,0.00,71.00
"CA1AB000064","2016-12-13",,,0.00,,
"CA1AB000064","2016-12-14",,,0.00,0.00,61.00
"CA1AB000064","2016-12-15",,,0.00,0.00,61.00
"CA1AB000064","2016-12-16",,,0.00,0.00,61.00
"CA1AB000064","2016-12-17",,,3.00,5.00,71.00
"CA1AB000064","2016-12-18",,,0.00,0.00,61.00
"CA1AB000064","2016-12-19",,,0.00,0.00,51.00
"CA1AB000064","2016-12-20",,,0.00,0.00,51.00
"CA1AB000064","2016-12-21",,,0.00,0.00,51.00
"CA1AB000064","2016-12-22",,,0.00,0.00,51.00
"CA1AB000064","2016-12-23",,,0.00,0.00,51.00
"CA1AB000064","2016-12-24",,,15.00,30.00,79.00
"CA1AB000064","2016-12-25",,,28.00,51.00,140.00
"CA1AB000064","2016-12-26",,,0.00,0.00,119.00
"CA1AB000064","2016-12-27",,,0.00,0.00,119.00
"CA1AB000064","2016-12-28",,,0.00,0.00,119.00
"CA1AB000064","2016-12-29",,,0.00,0.00,119.00
"CA1AB000064","2016-12-30",,,0.00,0.00,119.00
"CA1AB000064","2016-12-31",,,13.00,20.00,130.00
"CA1AB000064","2017-01-01",,,0.00,0.00,130.00
"CA1AB000064","2017-01-02",,,5.00,10.00,130.00
"CA1AB000064","2017-01-03",,,0.00,0.00,130.00
"CA1AB000064","2017-01-04",,,0.00,0.00,130.00
"CA1AB000064","2017-01-05",,,3.00,5.00,130.00
"CA1AB000064","2017-01-06",,,20.00,30.00,160.00
"CA1AB000064","2017-01-10",,,,,201.00
"CA1AB000064","2017-01-11",,,23.00,41.00,239.00
"CA1AB000064","2017-01-12",,,8.00,10.00,201.00
"CA1AB000064","2017-01-13",,,0.00,0.00,221.00
"CA1AB000064","2017-01-14",,,0.00,0.00,221.00
"CA1AB000064","2017-01-15",,,0.00,0.00,221.00
"CA1AB000064","2017-01-16",,,0.00,0.00,201.00
"CA1AB000064","2017-01-17",,,0.00,0.00,191.00
"CA1AB000064","2017-01-18",,,0.00,0.00,180.00
"CA1AB000064","2017-01-19",,,0.00,0.00,170.00
"CA1AB000064","2017-01-20",,,0.00,0.00,180.00
"CA1AB000064","2017-01-21",,,0.00,0.00,180.00
"CA1AB000064","2017-01-22",,,0.00,0.00,180.00
"CA1AB000064","2017-01-23",,,0.00,0.00,180.00
"CA1AB000064","2017-01-24",,,0.00,0.00,180.00
"CA1AB000064","2017-01-25",,,0.00,0.00,180.00
"CA1AB000064","2017-01-26",,,0.00,0.00,180.00
"CA1AB000064","2017-01-27",,,0.00,0.00,180.00
"CA1AB000064","2017-01-28",,,0.00,0.00,170.00
"CA1AB000064","2017-01-29",,,0.00,0.00,170.00
"CA1AB000064","2017-01-30",,,0.00,0.00,170.00
"CA1AB000064","2017-01-31",,,8.00,20.00,191.00
"CA1AB000064","2017-02-01",,,0.00,0.00,180.00
"CA1AB000064","2017-02-02",,,0.00,0.00,180.00
"CA1AB000064","2017-02-03",,,0.00,0.00,170.00
"CA1AB000064","2017-02-04",,,5.00,10.00,180.00
"CA1AB000064","2017-02-05",,,8.00,10.00,180.00
"CA1AB000064","2017-02-06",,,0.00,0.00,180.00
"CA1AB000064","2017-02-07",,,20.00,20.00,191.00
"CA1AB000064","2017-02-08",,,0.00,0.00,191.00
"CA1AB000064","2017-02-09",,,0.00,0.00,180.00
"CA1AB000064","2017-02-10",,,15.00,20.00,201.00
"CA1AB000064","2017-02-11",,,0.00,0.00,201.00
"CA1AB000064","2017-02-12",,,0.00,0.00,201.00
"CA1AB000064","2017-02-13",,,0.00,0.00,201.00
"CA1AB000064","2017-02-14",,,0.00,0.00,180.00
"CA1AB000064","2017-02-15",,,0.00,0.00,130.00
"CA1AB000064","2017-02-16",,,0.00,0.00,119.00
"CA1AB000064","2017-02-17",,,0.00,0.00,99.00
"CA1AB000064","2017-02-18",,,0.00,0.00,79.00
"CA1AB000064","2017-02-19",,,41.00,30.00,89.00
"CA1AB000064","2017-02-20",,,0.00,0.00,71.00
"CA1AB000064","2017-02-21",,,0.00,0.00,79.00
"CA1AB000064","2017-02-22",,,0.00,0.00,71.00
"CA1AB000064","2017-02-23",,,0.00,0.00,71.00
"CA1AB000064","2017-02-24",,,0.00,0.00,71.00
"CA1AB000064","2017-02-25",,,0.00,0.00,71.00
"CA1AB000064","2017-02-26",,,15.00,20.00,99.00
"CA1AB000064","2017-02-27",,,0.00,0.00,99.00
"CA1AB000064","2017-02-28",,,0.00,0.00,99.00
"CA1AB000064","2017-03-01",,,0.00,0.00,89.00
"CA1AB000064","2017-03-02",,,0.00,0.00,89.00
"CA1AB000064","2017-03-03",,,0.00,0.00,79.00
"CA1AB000064","2017-03-04",,,23.00,51.00,119.00
"CA1AB000064","2017-03-05",,,13.00,20.00,119.00
"CA1AB000064","2017-03-06",,,20.00,30.00,130.00
"CA1AB000064","2017-03-07",,,10.00,20.00,119.00
"CA1AB000064","2017-03-08",,,8.00,10.00,130.00
"CA1AB000064","2017-03-09",,,5.00,10.00,140.00
"CA1AB000064","2017-03-10",,,0.00,0.00,140.00
"CA1AB000064","2017-03-11",,,8.00,10.00,140.00
"CA1AB000064","2017-03-12",,,28.00,41.00,170.00
"CA1AB000064","2017-03-13",,,0.00,0.00,140.00
"CA1AB000064","2017-03-14",,,0.00,0.00,140.00
"CA1AB000064","2017-03-15",,,0.00,0.00,99.00
"CA1AB000064","2017-03-16",,,0.00,0.00,99.00
"CA1AB000064","2017-03-17",,,46.00,51.00,119.00
"CA1AB000064","2017-03-18",,,0.00,0.00,99.00
"CA1AB000064","2017-03-19",,,8.00,10.00,109.00
"CA1AB000064","2017-03-20",,,5.00,10.00,89.00
"CA1AB000064","2017-03-21",,,0.00,0.00,79.00
"CA1AB000064","2017-03-22",,,0.00,0.00,79.00
"CA1AB000064","2017-03-23",,,0.00,0.00,61.00
"CA1AB000064","2017-03-24",,,0.00,0.00,61.00
"CA1AB000064","2017-03-25",,,0.00,0.00,41.00
"CA1AB000064","2017-03-26",,,0.00,0.00,20.00
"CA1AB000064","2017-03-27",,,0.00,0.00,20.00
"CA1AB000064","2017-03-28",,,0.00,0.00,0.00
"CA1AB000064","2017-03-29",,,0.00,0.00,0.00
"CA1AB000064","2017-03-30",,,0.00,0.00,0.00
"CA1AB000064","2017-03-31",,,0.00,0.00,0.00
"CA1AB000064","2017-04-01",,,0.00,0.00,0.00
"CA1AB000064","2017-04-02",,,0.00,0.00,0.00
"CA1AB000064","2017-04-03",,,8.00,5.00,0.00
"CA1AB000064","2017-04-04",,,8.00,0.00,0.00
"CA1AB000064","2017-04-05",,,0.00,0.00,0.00
"CA1AB000064","2017-04-06",,,0.00,0.00,0.00
"CA1AB000064","2017-04-07",,,5.00,0.00,0.00
"CA1AB000064","2017-04-08",,,150.00,0.00,0.00
"CA1AB000064","2017-04-09",,,5.00,0.00,0.00
"CA1AB000064","2017-04-10",,,0.00,0.00,0.00
"CA1AB000064","2017-04-11",,,8.00,0.00,0.00
"CA1AB000064","2017-04-12",,,0.00,0.00,0.00
"CA1AB000064","2017-04-13",,,0.00,0.00,0.00
"CA1AB000064","2017-04-14",,,216.00,119.00,119.00
"CA1AB000064","2017-04-15",,,41.00,41.00,99.00
"CA1AB000064","2017-04-16",,,0.00,0.00,79.00
"CA1AB000064","2017-04-17",,,0.00,0.00,41.00
"CA1AB000064","2017-04-18",,,0.00,0.00,20.00
"CA1AB000064","2017-04-19",,,33.00,30.00,41.00
"CA1AB000064","2017-04-20",,,0.00,0.00,0.00
"CA1AB000064","2017-04-21",,,0.00,0.00,0.00
"CA1AB000064","2017-04-22",,,46.00,0.00,0.00
"CA1AB000064","2017-04-23",,,48.00,79.00,79.00
"CA1AB000064","2017-04-24",,,46.00,30.00,79.00
"CA1AB000064","2017-04-25",,,23.00,0.00,0.00
"CA1AB000064","2017-04-26",,,3.00,0.00,0.00
"CA1AB000064","2017-04-27",,,0.00,0.00,0.00
"CA1AB000064","2017-04-28",,,0.00,0.00,0.00
"CA1AB000064","2017-04-29",,,0.00,0.00,0.00
"CA1AB000064","2017-04-30",,,0.00,0.00,0.00
"CA1AB000064","2017-05-01",,,3.00,0.00,0.00
"CA1AB000064","2017-05-02",,,0.00,0.00,0.00
"CA1AB000064","2017-05-03",,,0.00,0.00,0.00
"CA1AB000064","2017-05-04",,,0.00,0.00,0.00
"CA1AB000064","2017-05-05",,,0.00,0.00,0.00
"CA1AB000064","2017-05-06",,,0.00,0.00,0.00
"CA1AB000064","2017-05-07",,,18.00,0.00,0.00
"CA1AB000064","2017-05-08",,,0.00,0.00,0.00
"CA1AB000064","2017-05-09",,,0.00,0.00,0.00
"CA1AB000064","2017-05-10",,,0.00,0.00,0.00
"CA1AB000064","2017-05-11",,,0.00,0.00,0.00
"CA1AB000064","2017-05-12",,,0.00,0.00,0.00
"CA1AB000064","2017-05-13",,,86.00,0.00,0.00
"CA1AB000064","2017-05-14",,,5.00,0.00,0.00
"CA1AB000064","2017-05-15",,,5.00,0.00,0.00
"CA1AB000064","2017-05-16",,,56.00,0.00,0.00
"CA1AB000064","2017-05-17",,,0.00,0.00,0.00
"CA1AB000064","2017-05-18",,,0.00,0.00,0.00
"CA1AB000064","2017-05-19",,,0.00,0.00,0.00
"CA1AB000064","2017-05-20",,,0.00,0.00,0.00
"CA1AB000064","2017-05-21",,,0.00,0.00,0.00
"CA1AB000064","2017-05-22",,,0.00,0.00,0.00
"CA1AB000064","2017-05-23",,,0.00,0.00,0.00
"CA1AB000064","2017-05-24",,,13.00,0.00,0.00
"CA1AB000064","2017-05-25",,,394.00,0.00,0.00
"CA1AB000064","2017-05-26",,,0.00,0.00,0.00
"CA1AB000064","2017-05-27",,,0.00,0.00,0.00
"CA1AB000064","2017-05-28",,,0.00,0.00,0.00
"CA1AB000064","2017-05-29",,,0.00,0.00,0.00
"CA1AB000064","2017-05-30",,,0.00,0.00,0.00
"CA1AB000064","2017-05-31",,,0.00,0.00,0.00
"CA1AB000064","2017-06-01",,,3.00,0.00,0.00
"CA1AB000064","2017-06-02",,,28.00,,
"CA1AB000064","2017-06-03",,,61.00,0.00,0.00
"CA1AB000064","2017-06-04",,,0.00,0.00,0.00
"CA1AB000064","2017-06-05",,,8.00,0.00,0.00
"CA1AB000064","2017-06-06",,,0.00,0.00,0.00
"CA1AB000064","2017-06-07",,,0.00,0.00,0.00
"CA1AB000064","2017-06-08",,,0.00,0.00,
"CA1AB000064","2017-06-09",,,3.00,0.00,0.00
"CA1AB000064","2017-06-10",,,86.00,,
"CA1AB000064","2017-06-11",,,8.00,,
"CA1AB000064","2017-06-12",,,3.00,0.00,0.00
"CA1AB000064","2017-06-13",,,0.00,0.00,0.00
"CA1AB000064","2017-06-14",,,3.00,0.00,0.00
"CA1AB000064","2017-06-15",,,30.00,0.00,0.00
"CA1AB000064","2017-06-16",,,0.00,0.00,0.00
"CA1AB000064","2017-06-17",,,41.00,0.00,0.00
"CA1AB000064","2017-06-18",,,0.00,0.00,0.00
"CA1AB000064","2017-06-19",,,0.00,0.00,0.00
"CA1AB000064","2017-06-20",,,10.00,0.00,0.00
"CA1AB000064","2017-06-21",,,56.00,0.00,0.00
"CA1AB000064","2017-06-22",,,20.00,0.00,0.00
"CA1AB000064","2017-06-23",,,0.00,0.00,0.00
"CA1AB000064","2017-06-24",,,0.00,0.00,0.00
"CA1AB000064","2017-06-25",,,0.00,0.00,0.00
"CA1AB000064","2017-06-26",,,0.00,0.00,0.00
"CA1AB000064","2017-06-27",,,0.00,0.00,0.00
"CA1AB000064","2017-06-28",,,20.00,0.00,0.00
"CA1AB000064","2017-06-29",,,58.00,0.00,0.00
"CA1AB000064","2017-06-30",,,0.00,0.00,0.00
"CA1AB000064","2017-07-01",,,0.00,0.00,0.00
"CA1AB000064","2017-07-02",,,30.00,0.00,0.00
"CA1AB000064","2017-07-03",,,0.00,0.00,0.00
"CA1AB000064","2017-07-04",,,0.00,0.00,0.00
"CA1AB000064","2017-07-05",,,0.00,0.00,0.00
"CA1AB000064","2017-07-06",,,0.00,0.00,0.00
"CA1AB000064","2017-07-07",,,0.00,0.00,0.00
"CA1AB000064","2017-07-10",,,,,0.00
"CA1AB000064","2017-07-11",,,0.00,0.00,0.00
"CA1AB000064","2017-07-12",,,18.00,0.00,0.00
"CA1AB000064","2017-07-13",,,3.00,0.00,0.00
"CA1AB000064","2017-07-25",,,0.00,0.00,0.00
"CA1AB000064","2017-07-26",,,0.00,0.00,0.00
"CA1AB000064","2017-07-27",,,0.00,0.00,0.00
"CA1AB000064","2017-07-28",,,30.00,0.00,0.00
"CA1AB000064","2017-07-29",,,36.00,,
"CA1AB000064","2017-07-30",,,0.00,0.00,0.00
"CA1AB000064","2017-07-31",,,0.00,0.00,0.00
"CA1AB000064","2017-08-01",,,3.00,0.00,0.00
"CA1AB000064","2017-08-02",,,46.00,,
"CA1AB000064","2017-08-03",,,0.00,0.00,0.00
"CA1AB000064","2017-08-04",,,15.00,0.00,0.00
"CA1AB000064","2017-08-05",,,53.00,0.00,0.00
"CA1AB000064","2017-08-06",,,66.00,0.00,0.00
"CA1AB000064","2017-08-09",,,41.00,,
"CA1AB000064","2017-08-10",,,0.00,,
"CA1AB000064","2017-08-11",,,3.00,0.00,0.00
"CA1AB000064","2017-08-12",,,0.00,0.00,0.00
"CA1AB000064","2017-08-13",,,0.00,0.00,0.00
"CA1AB000064","2017-08-14",,,127.00,0.00,0.00
"CA1AB000064","2017-08-15",,,0.00,0.00,0.00
"CA1AB000064","2017-08-16",,,0.00,0.00,0.00
"CA1AB000064","2017-08-17",,,0.00,0.00,0.00
"CA1AB000064","2017-08-18",,,0.00,0.00,0.00
"CA1AB000064","2017-08-19",,,33.00,,
"CA1AB000064","2017-08-20",,,0.00,0.00,0.00
"CA1AB000064","2017-08-21",,,0.00,0.00,0.00
"CA1AB000064","2017-08-22",,,0.00,0.00,0.00
"CA1AB000064","2017-08-23",,,0.00,0.00,0.00
"CA1AB000064","2017-08-24",,,0.00,0.00,0.00
"CA1AB000064","2017-08-25",,,0.00,0.00,0.00
"CA1AB000064","2017-08-26",,,0.00,0.00,0.00
"CA1AB000064","2017-08-27",,,0.00,0.00,0.00
"CA1AB000064","2017-08-28",,,0.00,0.00,0.00
"CA1AB000064","2017-08-29",,,0.00,0.00,0.00
"CA1AB000064","2017-08-30",,,0.00,0.00,0.00
"CA1AB000064","2017-08-31",,,0.00,0.00,0.00
"CA1AB000064","2017-09-01",,,0.00,0.00,0.00
"CA1AB000064","2017-09-02",,,0.00,0.00,0.00
"CA1AB000064","2017-09-03",,,10.00,0.00,0.00
"CA1AB000064","2017-09-04",,,0.00,0.00,0.00
"CA1AB000064","2017-09-05",,,0.00,0.00,0.00
"CA1AB000064","2017-09-06",,,0.00,0.00,0.00
"CA1AB000064","2017-09-07",,,0.00,0.00,0.00
"CA1AB000064","2017-09-08",,,0.00,0.00,0.00
"CA1AB000064","2017-09-11",,,,,0.00
"CA1AB000064","2017-09-12",,,5.00,0.00,0.00
"CA1AB000064","2017-09-13",,,30.00,0.00,0.00
"CA1AB000064","2017-09-14",,,99.00,0.00,0.00
"CA1AB000064","2017-09-15",,,10.00,0.00,0.00
"CA1AB000064","2017-09-16",,,0.00,0.00,0.00
"CA1AB000064","2017-09-17",,,0.00,0.00,0.00
"CA1AB000064","2017-09-18",,,0.00,0.00,0.00
"CA1AB000064","2017-09-19",,,33.00,0.00,0.00
"CA1AB000064","2017-09-20",,,221.00,0.00,0.00
"CA1AB000064","2017-09-21",,,112.00,0.00,0.00
"CA1AB000064","2017-09-22",,,79.00,0.00,0.00
"CA1AB000064","2017-09-23",,,0.00,0.00,0.00
"CA1AB000064","2017-09-24",,,0.00,0.00,0.00
"CA1AB000064","2017-09-25",,,0.00,0.00,0.00
"CA1AB000064","2017-09-26",,,0.00,0.00,0.00
"CA1AB000064","2017-09-27",,,0.00,0.00,0.00
"CA1AB000064","2017-09-28",,,0.00,0.00,0.00
"CA1AB000064","2017-09-29",,,0.00,0.00,0.00
"CA1AB000064","2017-09-30",,,0.00,0.00,0.00
"CA1AB000064","2017-10-01",,,0.00,0.00,0.00
"CA1AB000064","2017-10-02",,,119.00,20.00,20.00
"CA1AB000064","2017-10-03",,,0.00,0.00,0.00
"CA1AB000064","2017-10-04",,,0.00,0.00,0.00
"CA1AB000064","2017-10-05",,,0.00,0.00,0.00
"CA1AB000064","2017-10-06",,,0.00,0.00,0.00
"CA1AB000064","2017-10-07",,,0.00,0.00,0.00
"CA1AB000064","2017-10-10",,,,,0.00
"CA1AB000064","2017-10-11",,,3.00,0.00,0.00
"CA1AB000064","2017-10-12",,,0.00,0.00,0.00
"CA1AB000064","2017-10-13",,,0.00,0.00,0.00
"CA1AB000064","2017-10-14",,,0.00,0.00,0.00
"CA1AB000064","2017-10-15",,,0.00,0.00,0.00
"CA1AB000064","2017-10-16",,,0.00,0.00,0.00
"CA1AB000064","2017-10-17",,,0.00,0.00,0.00
"CA1AB000064","2017-10-18",,,33.00,0.00,0.00
"CA1AB000064","2017-10-19",,,0.00,0.00,0.00
"CA1AB000064","2017-10-20",,,0.00,0.00,0.00
"CA1AB000064","2017-10-21",,,0.00,0.00,0.00
"CA1AB000064","2017-10-22",,,0.00,0.00,0.00
"CA1AB000064","2017-10-23",,,0.00,0.00,0.00
"CA1AB000064","2017-10-24",,,0.00,0.00,0.00
"CA1AB000064","2017-10-25",,,0.00,0.00,0.00
"CA1AB000064","2017-10-26",,,0.00,0.00,0.00
"CA1AB000064","2017-10-27",,,0.00,0.00,0.00
"CA1AB000064","2017-10-28",,,0.00,0.00,0.00
"CA1AB000064","2017-10-29",,,0.00,0.00,0.00
"CA1AB000064","2017-10-30",,,0.00,0.00,0.00
"CA1AB000064","2017-10-31",,,23.00,20.00,20.00
"CA1AB000064","2017-11-01",,,122.00,61.00,61.00
"CA1AB000064","2017-11-02",,,109.00,79.00,119.00
"CA1AB000064","2017-11-03",,,8.00,10.00,150.00
"CA1AB000064","2017-11-04",,,5.00,0.00,140.00
"CA1AB000064","2017-11-05",,,0.00,0.00,140.00
"CA1AB000064","2017-11-06",,,5.00,8.00,130.00
"CA1AB000064","2017-11-07",,,0.00,0.00,119.00
"CA1AB000064","2017-11-08",,,8.00,10.00,130.00
"CA1AB000064","2017-11-09",,,0.00,0.00,130.00
"CA1AB000064","2017-11-10",,,0.00,0.00,119.00
"CA1AB000064","2017-11-11",,,0.00,0.00,119.00
"CA1AB000064","2017-11-12",,,0.00,0.00,119.00
"CA1AB000064","2017-11-13",,,0.00,0.00,109.00
"CA1AB000064","2017-11-14",,,25.00,41.00,150.00
"CA1AB000064","2017-11-15",,,5.00,10.00,150.00
"CA1AB000064","2017-11-16",,,3.00,5.00,150.00
"CA1AB000064","2017-11-17",,,3.00,5.00,150.00
"CA1AB000064","2017-11-18",,,0.00,0.00,150.00
"CA1AB000064","2017-11-19",,,0.00,0.00,130.00
"CA1AB000064","2017-11-20",,,5.00,10.00,140.00
"CA1AB000064","2017-11-21",,,0.00,0.00,140.00
"CA1AB000064","2017-11-22",,,15.00,20.00,160.00
"CA1AB000064","2017-11-23",,,0.00,0.00,130.00
"CA1AB000064","2017-11-24",,,28.00,0.00,99.00
"CA1AB000064","2017-11-25",,,0.00,0.00,99.00
"CA1AB000064","2017-11-26",,,0.00,0.00,109.00
"CA1AB000064","2017-11-27",,,10.00,10.00,109.00
"CA1AB000064","2017-11-28",,,0.00,0.00,109.00
"CA1AB000064","2017-11-29",,,0.00,0.00,99.00
"CA1AB000064","2017-11-30",,,0.00,0.00,99.00
"CA1AB000064","2017-12-01",,,0.00,0.00,99.00
"CA1AB000064","2017-12-07",,,,,99.00
"CA1AB000064","2017-12-08",,,0.00,0.00,99.00
"CA1AB000064","2017-12-09",,,0.00,0.00,99.00
"CA1AB000064","2017-12-10",,,0.00,0.00,89.00
"CA1AB000064","2017-12-11",,,0.00,0.00,71.00
"CA1AB000064","2017-12-12",,,0.00,0.00,51.00
"CA1AB000064","2017-12-13",,,0.00,0.00,20.00
"CA1AB000064","2017-12-14",,,0.00,0.00,20.00
"CA1AB000064","2017-12-15",,,5.00,0.00,10.00
"CA1AB000064","2017-12-16",,,0.00,0.00,10.00
"CA1AB000064","2017-12-17",,,0.00,0.00,10.00
"CA1AB000064","2017-12-18",,,0.00,0.00,0.00
"CA1AB000064","2017-12-19",,,0.00,0.00,0.00
"CA1AB000064","2017-12-20",,,0.00,0.00,0.00
"CA1AB000064","2017-12-21",,,0.00,0.00,0.00
"CA1AB000064","2017-12-22",,,5.00,10.00,20.00
"CA1AB000064","2017-12-23",,,5.00,10.00,20.00
"CA1AB000064","2017-12-24",,,20.00,51.00,61.00
"CA1AB000064","2017-12-25",,,5.00,10.00,71.00
"CA1AB000064","2017-12-26",,,5.00,10.00,71.00
"CA1AB000064","2017-12-27",,,0.00,0.00,71.00
"CA1AB000064","2017-12-28",,,0.00,0.00,71.00
"CA1AB000064","2017-12-29",,,0.00,0.00,71.00
"CA1AB000064","2017-12-30",,,0.00,0.00,71.00
"CA1AB000064","2017-12-31",,,0.00,0.00,71.00
"CA1AB000064","2018-01-01",,,0.00,0.00,71.00
"CA1AB000064","2018-01-02",,,0.00,0.00,71.00
"CA1AB000064","2018-01-03",,,0.00,0.00,71.00
"CA1AB000064","2018-01-04",,,0.00,0.00,71.00
"CA1AB000064","2018-01-05",,,0.00,0.00,71.00
"CA1AB000064","2018-01-06",,,0.00,0.00,71.00
"CA1AB000064","2018-01-07",,,0.00,0.00,71.00
"CA1AB000064","2018-01-08",,,0.00,0.00,71.00
"CA1AB000064","2018-01-09",,,0.00,0.00,71.00
"CA1AB000064","2018-01-10",,,23.00,61.00,119.00
"CA1AB000064","2018-01-11",,,0.00,0.00,119.00
"CA1AB000064","2018-01-12",,,0.00,0.00,119.00
"CA1AB000064","2018-01-13",,,0.00,0.00,119.00
"CA1AB000064","2018-01-14",,,5.00,10.00,119.00
"CA1AB000064","2018-01-15",,,0.00,0.00,119.00
"CA1AB000064","2018-01-16",,,0.00,0.00,109.00
"CA1AB000064","2018-01-17",,,5.00,0.00,99.00
"CA1AB000064","2018-01-18",,,0.00,0.00,109.00
"CA1AB000064","2018-01-19",,,0.00,0.00,109.00
"CA1AB000064","2018-01-20",,,0.00,0.00,109.00
"CA1AB000064","2018-01-21",,,0.00,0.00,99.00
"CA1AB000064","2018-01-22",,,0.00,0.00,79.00
"CA1AB000064","2018-01-23",,,0.00,0.00,79.00
"CA1AB000064","2018-01-24",,,0.00,0.00,79.00
"CA1AB000064","2018-01-25",,,0.00,0.00,79.00
"CA1AB000064","2018-01-26",,,81.00,109.00,180.00
"CA1AB000064","2018-01-27",,,33.00,61.00,231.00
"CA1AB000064","2018-01-28",,,10.00,20.00,249.00
"CA1AB000064","2018-01-29",,,0.00,0.00,231.00
"CA1AB000064","2018-01-30",,,0.00,0.00,231.00
"CA1AB000064","2018-01-31",,,5.00,5.00,231.00
"CA1AB000064","2018-02-01",,,5.00,10.00,239.00
"CA1AB000064","2018-02-02",,,0.00,0.00,239.00
"CA1AB000064","2018-02-03",,,61.00,99.00,351.00
"CA1AB000064","2018-02-04",,,5.00,10.00,330.00
"CA1AB000064","2018-02-05",,,0.00,0.00,320.00
"CA1AB000064","2018-02-06",,,0.00,0.00,330.00
"CA1AB000064","2018-02-07",,,0.00,0.00,330.00
"CA1AB000064","2018-02-08",,,0.00,0.00,320.00
"CA1AB000064","2018-02-09",,,0.00,0.00,320.00
"CA1AB000064","2018-02-10",,,0.00,0.00,310.00
"CA1AB000064","2018-02-11",,,8.00,30.00,340.00
"CA1AB000064","2018-02-12",,,0.00,0.00,310.00
"CA1AB000064","2018-02-13",,,0.00,0.00,310.00
"CA1AB000064","2018-02-14",,,15.00,20.00,320.00
"CA1AB000064","2018-02-15",,,0.00,0.00,310.00
"CA1AB000064","2018-02-16",,,0.00,0.00,300.00
"CA1AB000064","2018-02-17",,,0.00,0.00,300.00
"CA1AB000064","2018-02-18",,,0.00,0.00,300.00
"CA1AB000064","2018-02-19",,,0.00,0.00,290.00
"CA1AB000064","2018-02-20",,,0.00,0.00,290.00
"CA1AB000064","2018-02-21",,,5.00,5.00,290.00
"CA1AB000064","2018-02-22",,,0.00,0.00,290.00
"CA1AB000064","2018-02-23",,,0.00,0.00,290.00
"CA1AB000064","2018-02-24",,,0.00,0.00,290.00
"CA1AB000064","2018-02-25",,,0.00,0.00,279.00
"CA1AB000064","2018-02-26",,,0.00,0.00,279.00
"CA1AB000064","2018-02-27",,,0.00,0.00,269.00
"CA1AB000064","2018-02-28",,,0.00,0.00,269.00
"CA1AB000064","2018-03-01",,,0.00,0.00,269.00
"CA1AB000064","2018-03-02",,,0.00,0.00,269.00
"CA1AB000064","2018-03-03",,,38.00,119.00,381.00
"CA1AB000064","2018-03-04",,,30.00,61.00,409.00
"CA1AB000064","2018-03-09",,,,,290.00
"CA1AB000064","2018-03-10",,,0.00,0.00,259.00
"CA1AB000064","2018-03-11",,,0.00,0.00,249.00
"CA1AB000064","2018-03-12",,,0.00,0.00,259.00
"CA1AB000064","2018-03-13",,,0.00,0.00,231.00
"CA1AB000064","2018-03-14",,,0.00,0.00,221.00
"CA1AB000064","2018-03-15",,,0.00,,221.00
"CA1AB000064","2018-03-16",,,5.00,5.00,221.00
"CA1AB000064","2018-03-17",,,0.00,0.00,201.00
"CA1AB000064","2018-03-18",,,89.00,79.00,300.00
"CA1AB000064","2018-03-19",,,3.00,0.00,279.00
"CA1AB000064","2018-03-20",,,0.00,0.00,249.00
"CA1AB000064","2018-03-21",,,0.00,0.00,221.00
"CA1AB000064","2018-03-22",,,0.00,0.00,231.00
"CA1AB000064","2018-03-23",,,20.00,41.00,249.00
"CA1AB000064","2018-03-24",,,0.00,0.00,221.00
"CA1AB000064","2018-03-25",,,0.00,0.00,180.00
"CA1AB000064","2018-03-26",,,0.00,0.00,191.00
"CA1AB000064","2018-03-27",,,0.00,0.00,180.00
"CA1AB000064","2018-03-28",,,0.00,0.00,191.00
"CA1AB000064","2018-03-29",,,10.00,10.00,180.00
"CA1AB000064","2018-03-30",,,15.00,20.00,180.00
"CA1AB000064","2018-03-31",,,0.00,0.00,180.00
"CA1AB000064","2018-04-01",,,0.00,0.00,160.00
"CA1AB000064","2018-04-02",,,0.00,0.00,150.00
"CA1AB000064","2018-04-03",,,0.00,0.00,130.00
"CA1AB000064","2018-04-04",,,0.00,0.00,140.00
"CA1AB000064","2018-04-05",,,5.00,10.00,140.00
"CA1AB000064","2018-04-06",,,0.00,0.00,130.00
"CA1AB000064","2018-04-07",,,0.00,0.00,119.00
"CA1AB000064","2018-04-08",,,5.00,5.00,119.00
"CA1AB000064","2018-04-09",,,0.00,0.00,99.00
"CA1AB000064","2018-04-10",,,0.00,0.00,109.00
"CA1AB000064","2018-04-11",,,5.00,20.00,89.00
"CA1AB000064","2018-04-12",,,0.00,0.00,89.00
"CA1AB000064","2018-04-13",,,15.00,20.00,79.00
"CA1AB000064","2018-04-14",,,0.00,0.00,79.00
"CA1AB000064","2018-04-15",,,0.00,0.00,61.00
"CA1AB000064","2018-04-16",,,0.00,0.00,41.00
"CA1AB000064","2018-04-17",,,79.00,61.00,79.00
"CA1AB000064","2018-04-18",,,0.00,0.00,20.00
"CA1AB000064","2018-04-19",,,0.00,0.00,0.00
"CA1AB000064","2018-04-20",,,0.00,0.00,0.00
"CA1AB000064","2018-04-21",,,0.00,0.00,0.00
"CA1AB000064","2018-04-22",,,13.00,0.00,0.00
"CA1AB000064","2018-04-23",,,0.00,0.00,0.00
"CA1AB000064","2018-04-24",,,0.00,0.00,0.00
"CA1AB000064","2018-04-25",,,0.00,0.00,0.00
"CA1AB000064","2018-04-26",,,0.00,0.00,0.00
"CA1AB000064","2018-04-27",,,0.00,0.00,0.00